Wind_Speed
32 30 29 29 28 27 29 37 42 47 52 56 61 62 60 57 54 51 48 51 49 45 42 41 38 35 34 30 28 24 21 20 19 13 12 14 13 4 7 14 24 27 28 26 29
35 36 36 34 34 34 34 35 40 44 50 52 58 61 65 62 59 56 53 53 51 49 46 44 41 39 36 35 31 28 25 24 21 21 17 15 12 11 15 18 23 27 24 23 26
41 41 40 40 41 39 41 40 40 43 46 52 56 61 62 65 65 61 59 56 53 52 48 46 47 45 42 35 34 32 30 28 26 25 23 20 21 18 17 21 24 21 18 19 22
45 46 45 45 45 45 47 46 46 46 47 49 56 59 63 64 65 66 65 62 59 57 54 48 48 45 44 40 37 36 35 32 30 28 26 25 25 24 22 23 16 14 14 15 18
47 50 51 50 50 50 52 52 52 52 51 51 54 59 62 64 64 67 67 67 64 62 60 56 50 47 43 44 43 41 38 35 31 32 31 27 24 23 18 10 11 12 10 13 15
44 48 52 55 56 56 56 57 57 57 57 56 55 58 62 64 63 66 69 68 69 67 65 61 55 52 48 44 42 41 41 40 38 34 33 31 27 24 17 8 10 12 8 11 10
51 50 51 54 59 60 63 63 62 62 63 62 61 60 61 62 66 66 68 71 71 71 69 64 61 56 54 51 48 47 45 43 41 38 36 33 29 25 21 13 12 9 6 9 9
56 59 57 59 59 60 64 68 68 67 67 67 67 66 65 61 64 68 69 69 73 72 73 70 68 64 60 59 56 51 47 46 44 43 40 35 33 27 22 17 12 9 8 8 7
51 55 61 63 64 61 61 63 68 72 72 72 72 72 69 67 64 65 69 70 71 72 73 75 72 70 67 65 63 60 57 51 47 44 41 37 32 31 26 22 13 13 10 8 8
41 48 53 55 62 63 63 65 63 66 74 77 78 77 77 74 71 68 68 69 71 71 72 73 73 74 72 68 68 66 61 59 56 51 46 40 34 34 31 27 19 16 14 11 11
32 31 31 42 50 50 54 60 63 68 70 77 83 83 81 80 77 74 71 68 69 70 71 71 73 71 74 74 73 70 66 61 58 54 49 42 38 37 34 31 24 19 18 14 14
37 30 26 26 32 42 47 51 53 63 70 75 82 88 88 86 82 81 77 72 68 67 70 71 71 74 73 73 71 69 68 66 61 57 52 47 44 38 37 36 31 23 21 18 17
47 34 31 25 26 29 32 35 44 50 61 76 79 87 92 90 88 86 83 77 73 70 67 69 73 71 70 70 68 69 67 66 65 59 55 52 46 43 40 37 34 27 25 22 20
56 50 31 29 32 36 40 44 45 45 50 62 77 81 92 97 94 91 87 83 79 74 72 68 67 70 72 70 67 66 65 62 62 63 58 51 47 46 48 40 37 33 30 26 23
56 61 42 26 35 39 43 48 54 56 56 58 69 79 87 96 99 96 93 87 84 81 75 71 66 64 65 69 70 68 62 59 59 59 55 52 51 51 50 45 42 40 34 30 26
58 66 46 28 42 44 43 46 52 61 61 62 64 71 79 93 99 100 97 93 88 85 82 77 73 67 64 66 68 66 63 58 58 58 53 50 50 53 54 52 48 41 35 34 29
64 68 53 35 49 47 40 37 41 49 61 65 68 66 72 83 95 99 101 99 94 88 85 83 78 72 67 65 66 61 61 58 57 55 51 54 52 55 54 53 49 46 39 37 31
62 64 60 46 58 49 37 32 32 33 44 56 65 67 68 75 86 96 101 102 99 94 90 87 85 77 72 67 63 58 55 52 50 52 57 57 56 55 55 53 50 49 41 42 37
63 67 70 57 61 49 34 27 29 32 36 40 52 65 71 71 78 88 96 103 103 100 97 90 88 82 78 74 67 61 52 48 48 52 51 52 59 57 54 52 52 50 45 44 39
65 70 66 58 64 52 37 32 29 29 32 36 43 54 66 74 75 79 90 99 104 103 100 94 92 86 83 80 73 67 58 50 42 46 48 51 54 59 57 53 53 51 47 49 44
67 75 67 65 68 58 45 37 30 27 29 32 39 48 57 66 77 78 82 93 101 104 103 100 96 92 87 82 76 68 62 51 47 46 48 48 52 60 60 55 53 53 50 49 45
67 76 67 65 67 60 47 32 26 24 26 30 35 42 51 60 68 77 79 86 96 104 104 103 102 94 87 88 82 74 68 57 49 44 45 46 52 58 61 57 56 52 50 50 47
69 76 68 69 69 61 41 32 28 25 26 29 33 37 47 54 64 71 81 85 91 100 104 105 104 100 96 87 84 77 71 61 54 53 51 49 48 54 61 61 58 54 52 52 49
71 78 68 72 70 64 43 33 29 28 28 30 33 38 43 51 59 66 74 86 90 95 103 106 106 104 102 97 90 82 74 66 58 52 51 50 50 53 57 61 59 57 55 54 51
71 76 71 73 73 66 45 33 29 29 31 34 35 39 44 49 55 60 67 80 92 94 99 105 107 106 105 98 90 83 77 70 62 59 55 56 51 54 54 56 59 59 56 55 53
73 77 74 76 76 66 44 35 33 31 33 36 39 42 46 52 56 59 63 73 87 95 97 103 107 108 106 101 95 88 83 76 68 64 61 58 53 49 52 54 55 53 55 55 54
75 79 76 75 79 63 43 38 37 35 34 36 40 42 45 49 56 59 63 69 81 94 99 102 106 110 109 104 99 92 86 80 75 70 66 63 58 53 51 54 50 60 57 56 54
Wind_Direction
261 252 246 241 236 231 225 221 222 222 223 221 219 217 219 221 219 216 220 223 222 217 215 213 217 212 204 210 219 219 225 227 199 214 217 235 242 250 317 327 329 348 3 10 18
259 256 253 246 237 233 231 225 223 222 223 224 223 222 219 221 220 221 220 222 224 223 218 214 211 212 207 206 213 220 220 229 224 224 232 231 240 259 297 313 335 350 0 8 19
263 259 253 247 244 238 232 231 226 225 222 224 224 226 224 221 222 222 220 223 226 227 225 221 219 218 222 212 214 219 220 225 227 230 241 243 254 263 287 302 326 342 1 6 17
265 262 256 251 247 242 237 233 232 227 224 223 223 223 227 225 224 223 223 223 227 227 228 225 225 221 222 217 216 219 223 224 222 229 243 251 259 268 282 302 316 344 355 2 8
264 260 256 252 248 244 241 237 231 231 231 225 223 223 223 227 227 223 223 223 225 228 230 228 228 230 224 225 222 219 219 227 227 233 241 248 253 263 276 308 315 340 346 352 358
266 260 255 251 246 243 241 239 236 231 230 231 228 225 223 224 225 227 224 223 224 225 228 226 228 231 230 225 225 223 221 225 228 233 237 244 242 253 260 279 290 315 323 336 351
266 261 257 254 248 244 240 237 236 234 232 228 230 230 228 223 224 225 227 226 223 224 227 230 229 229 229 231 226 227 229 228 231 230 232 239 243 241 248 253 271 293 289 315 350
267 260 256 253 250 248 245 240 237 234 233 231 228 229 230 227 225 226 225 225 226 224 226 228 231 229 226 230 231 230 230 230 231 233 235 236 240 239 245 240 243 260 278 288 340
282 273 261 255 251 249 247 247 242 236 233 232 231 228 228 228 227 226 226 225 224 225 226 227 228 230 230 229 232 234 233 232 232 231 234 235 233 235 236 238 221 244 264 258 303
294 285 268 260 253 249 248 246 246 243 236 232 231 230 228 226 227 226 226 226 225 224 226 228 229 230 229 229 231 231 233 235 234 232 236 233 227 230 232 236 223 227 247 256 274
322 322 282 265 262 260 261 250 244 239 240 235 231 229 229 226 225 226 226 226 226 224 224 226 229 229 229 228 229 232 232 233 236 237 237 236 233 228 232 232 228 218 236 247 256
339 339 330 296 276 267 268 261 247 240 237 236 231 228 227 227 224 224 225 225 225 225 224 224 226 228 230 232 231 233 235 233 234 238 238 239 238 234 233 231 231 219 232 239 247
359 329 315 303 299 287 274 265 255 244 234 233 233 228 226 225 225 224 222 224 223 225 224 223 224 228 229 230 231 231 232 233 233 236 238 237 237 235 232 231 234 225 230 234 241
350 351 320 298 302 299 287 272 264 251 238 233 233 230 225 224 222 224 223 220 221 222 224 224 223 225 229 230 230 231 231 231 232 233 236 236 232 235 234 229 230 227 224 232 232
350 346 334 298 310 301 285 268 259 253 247 238 232 231 226 223 222 221 222 220 219 219 221 223 221 222 226 229 229 229 230 229 231 235 236 237 237 235 234 232 229 228 222 232 230
350 347 341 311 325 313 295 273 258 250 247 241 238 233 228 223 221 220 220 221 219 217 218 220 222 220 223 228 230 228 229 228 230 233 232 234 236 234 233 228 227 228 227 231 228
348 349 342 327 331 323 305 283 267 254 244 241 237 237 231 225 221 220 219 219 220 218 217 218 219 219 220 224 229 228 228 228 231 234 233 232 231 232 231 227 226 227 226 230 223
349 346 346 332 335 327 308 293 274 262 250 241 237 233 232 227 222 220 220 219 218 218 217 217 218 218 219 220 225 227 224 223 224 226 228 227 228 230 229 225 225 225 222 225 223
347 347 348 343 342 331 315 291 279 264 256 248 236 231 228 226 223 220 219 219 218 217 217 216 217 218 218 218 220 224 222 219 220 225 225 226 224 226 227 227 224 223 220 225 222
348 345 346 342 346 339 327 304 283 268 258 248 239 232 228 224 223 220 218 218 218 217 216 215 217 216 216 218 218 220 218 214 215 223 225 224 223 223 223 224 223 222 222 225 219
346 347 342 344 346 339 329 312 292 267 258 249 241 234 229 226 222 220 218 217 217 216 215 214 216 215 215 217 219 218 218 212 212 217 223 224 220 218 219 221 222 221 221 224 221
342 346 342 346 345 340 332 316 294 277 255 251 242 235 229 227 224 219 216 215 215 216 215 214 214 214 214 215 216 216 216 211 207 216 224 224 225 221 218 215 219 220 221 222 221
343 345 343 345 345 342 333 318 304 285 264 254 245 235 229 227 223 218 215 213 214 214 214 213 214 214 214 213 214 214 214 212 208 213 218 218 219 221 221 216 218 220 219 220 219
341 342 342 344 344 342 332 317 308 290 276 259 247 236 229 225 221 217 214 212 212 212 213 212 213 213 214 212 212 211 212 211 207 212 221 222 219 218 218 220 218 220 218 220 220
341 342 343 342 343 341 333 320 306 289 278 268 251 239 230 225 222 217 213 212 211 211 211 211 211 212 215 212 212 210 210 210 206 209 217 223 219 216 215 217 218 220 218 218 219
339 341 341 340 342 341 334 319 310 292 278 268 258 243 229 225 221 218 213 211 210 210 210 210 210 211 213 212 210 208 208 207 205 207 215 222 221 219 217 214 218 220 221 220 218
338 340 338 340 341 339 332 319 311 298 282 268 256 245 237 225 222 217 213 210 210 208 209 209 209 210 211 210 210 209 207 206 204 205 210 218 218 214 215 214 211 218 218 219 219
Height
10898 10899 10901 10903 10904 10906 10906 10908 10911 10915 10919 10925 10930 10937 10942 10947 10954 10960 10964 10966 10973 10981 10987 10993 10997 11001 11004 11010 11014 11017 11020 11022 11026 11028 11030 11031 11033 11035 11036 11035 11035 11034 11031 11027 11023
10889 10891 10893 10895 10895 10898 10899 10901 10903 10906 10911 10915 10920 10926 10933 10939 10945 10952 10957 10960 10966 10973 10980 10987 10992 10995 11000 11005 11010 11013 11016 11019 11023 11026 11029 11031 11033 11034 11035 11035 11036 11034 11032 11030 11026
10879 10880 10882 10884 10887 10889 10890 10892 10894 10897 10901 10905 10909 10915 10921 10928 10936 10943 10948 10954 10959 10964 10971 10977 10984 10990 10994 11000 11005 11009 11012 11016 11020 11023 11026 11029 11031 11033 11034 11035 11036 11035 11033 11031 11028
10866 10867 10869 10872 10875 10877 10879 10883 10885 10887 10890 10893 10898 10903 10909 10916 10925 10934 10939 10946 10951 10957 10962 10969 10975 10983 10989 10995 10999 11005 11008 11013 11017 11021 11023 11027 11029 11032 11034 11036 11035 11035 11034 11032 11029
10851 10851 10853 10856 10860 10864 10865 10869 10873 10877 10880 10883 10886 10891 10897 10903 10913 10920 10928 10936 10942 10948 10953 10960 10969 10975 10983 10987 10993 10998 11004 11008 11013 11017 11020 11024 11026 11029 11032 11034 11034 11034 11034 11032 11030
10836 10834 10834 10836 10840 10845 10848 10853 10858 10863 10868 10873 10876 10879 10884 10892 10900 10907 10916 10924 10931 10937 10943 10951 10961 10968 10975 10980 10986 10991 10997 11003 11007 11012 11017 11021 11024 11026 11029 11032 11032 11033 11033 11033 11031
10821 10820 10819 10819 10821 10825 10828 10833 10840 10847 10853 10859 10864 10868 10872 10882 10886 10893 10902 10911 10919 10926 10933 10942 10953 10961 10966 10971 10977 10981 10988 10995 11001 11007 11011 11016 11021 11023 11026 11029 11030 11031 11032 11031 11030
10800 10801 10800 10800 10803 10808 10811 10815 10822 10829 10836 10843 10848 10854 10860 10869 10874 10879 10887 10895 10904 10915 10922 10932 10940 10949 10957 10960 10965 10973 10979 10987 10994 11000 11006 11011 11017 11020 11023 11025 11027 11029 11029 11029 11029
10782 10779 10779 10781 10784 10790 10794 10797 10804 10810 10816 10824 10831 10838 10846 10854 10861 10867 10874 10882 10891 10902 10910 10918 10928 10936 10945 10951 10956 10963 10969 10977 10985 10993 10999 11006 11013 11017 11019 11022 11024 11026 11027 11027 11027
10762 10756 10754 10759 10764 10770 10775 10780 10785 10790 10797 10804 10811 10819 10828 10836 10844 10853 10859 10870 10879 10888 10897 10905 10913 10922 10931 10939 10942 10947 10957 10967 10975 10983 10992 10999 11007 11011 11015 11018 11021 11022 11024 11024 11025
10748 10739 10736 10742 10746 10752 10756 10759 10765 10770 10773 10780 10789 10798 10808 10818 10828 10837 10845 10855 10865 10876 10884 10890 10898 10909 10913 10919 10925 10938 10947 10958 10966 10975 10983 10991 10999 11005 11010 11013 11016 11018 11019 11021 11022
10745 10737 10734 10733 10733 10735 10735 10736 10739 10745 10752 10755 10764 10775 10784 10796 10810 10820 10830 10842 10853 10861 10869 10879 10886 10887 10898 10909 10920 10928 10937 10947 10958 10964 10973 10982 10989 10998 11003 11006 11009 11013 11014 11016 11018
10742 10735 10730 10725 10724 10722 10720 10719 10719 10724 10728 10733 10740 10750 10762 10775 10788 10799 10812 10827 10838 10847 10858 10863 10867 10880 10889 10897 10909 10918 10927 10936 10944 10956 10964 10973 10981 10988 10994 10999 11002 11007 11010 11011 11014
10738 10729 10722 10717 10714 10709 10706 10703 10702 10705 10708 10710 10717 10726 10738 10749 10766 10778 10793 10808 10822 10834 10841 10850 10862 10870 10877 10887 10895 10904 10914 10927 10935 10943 10954 10964 10972 10978 10985 10990 10995 11000 11004 11006 11009
10730 10721 10710 10705 10700 10694 10687 10683 10682 10684 10688 10694 10695 10701 10713 10725 10741 10758 10771 10789 10802 10815 10829 10839 10850 10858 10866 10871 10881 10890 10905 10917 10925 10933 10945 10955 10961 10968 10976 10982 10987 10991 10997 11001 11004
10718 10709 10698 10692 10685 10674 10664 10657 10657 10658 10666 10672 10676 10683 10692 10701 10718 10735 10752 10769 10784 10798 10811 10823 10834 10848 10854 10859 10870 10885 10895 10908 10914 10921 10935 10944 10952 10958 10963 10969 10977 10986 10992 10995 10999
10707 10695 10683 10677 10667 10654 10643 10637 10634 10634 10639 10648 10655 10663 10672 10681 10697 10714 10730 10746 10763 10781 10796 10807 10821 10834 10842 10851 10858 10877 10887 10898 10906 10917 10929 10933 10941 10945 10952 10960 10971 10977 10984 10989 10994
10696 10683 10671 10662 10650 10636 10625 10620 10617 10616 10618 10623 10633 10642 10651 10661 10675 10692 10707 10724 10742 10761 10776 10790 10803 10821 10832 10842 10850 10863 10876 10889 10898 10905 10910 10921 10930 10934 10940 10952 10961 10967 10975 10980 10984
10685 10673 10662 10647 10634 10620 10609 10606 10602 10601 10601 10605 10612 10620 10629 10641 10654 10669 10685 10701 10720 10739 10755 10775 10789 10807 10817 10826 10839 10852 10868 10877 10886 10892 10903 10911 10912 10926 10933 10941 10950 10958 10967 10972 10978
10675 10661 10649 10634 10622 10609 10600 10593 10590 10587 10586 10589 10595 10601 10609 10620 10633 10648 10663 10679 10698 10718 10737 10759 10771 10791 10803 10814 10828 10841 10854 10868 10879 10883 10890 10896 10904 10911 10920 10929 10938 10947 10956 10961 10971
10664 10650 10637 10624 10611 10598 10587 10579 10575 10573 10573 10575 10579 10585 10592 10601 10613 10628 10643 10658 10676 10697 10718 10738 10754 10769 10788 10805 10819 10834 10846 10862 10868 10872 10876 10884 10890 10896 10908 10919 10929 10936 10945 10953 10964
10655 10641 10626 10614 10601 10587 10574 10566 10563 10561 10561 10562 10564 10569 10576 10583 10595 10610 10626 10640 10655 10675 10698 10718 10733 10756 10778 10783 10803 10819 10832 10849 10860 10865 10867 10874 10877 10888 10897 10909 10918 10929 10939 10946 10954
10643 10629 10616 10603 10590 10577 10566 10559 10553 10551 10549 10549 10551 10555 10559 10566 10576 10591 10606 10621 10636 10654 10676 10697 10717 10736 10754 10776 10791 10809 10824 10841 10851 10851 10856 10861 10869 10877 10889 10900 10910 10922 10931 10937 10946
10633 10619 10604 10591 10578 10567 10557 10549 10544 10540 10537 10537 10538 10539 10544 10550 10559 10573 10587 10602 10618 10635 10655 10676 10698 10715 10732 10749 10771 10795 10813 10829 10841 10846 10849 10852 10860 10868 10880 10893 10905 10912 10920 10929 10937
10623 10607 10594 10584 10569 10556 10545 10539 10534 10530 10526 10523 10524 10525 10529 10535 10544 10555 10569 10583 10599 10617 10635 10657 10677 10697 10714 10740 10765 10784 10803 10819 10832 10834 10839 10839 10853 10859 10870 10884 10895 10903 10911 10919 10927
10612 10598 10582 10571 10557 10543 10533 10526 10521 10517 10513 10510 10508 10509 10512 10519 10527 10539 10553 10565 10581 10599 10617 10637 10658 10676 10696 10723 10747 10767 10786 10805 10817 10824 10827 10833 10843 10856 10866 10876 10887 10896 10903 10911 10918
10599 10585 10571 10558 10544 10531 10520 10512 10506 10499 10495 10492 10490 10491 10496 10505 10512 10524 10535 10549 10562 10579 10599 10617 10639 10657 10677 10704 10729 10752 10771 10789 10803 10812 10815 10823 10833 10845 10856 10867 10879 10881 10893 10902 10911